Stations météo

réclame
Mon MeteoGroup
South Uist Range, Grande-Bretagne (3023): Température de l'air & dewpoint: 16.07.2019 17:00:00 - 22.07.2019 17:00:00 (BST)South Uist Range, Grande-Bretagne (3023): Température de l'air -20cm & Température de l'air -100cm: 16.07.2019 17:00:00 - 22.07.2019 17:00:00 (BST)South Uist Range, Grande-Bretagne (3023): Vitesse du vent & gusts: 16.07.2019 17:00:00 - 22.07.2019 17:00:00 (BST)South Uist Range, Grande-Bretagne (3023): Direction du vent: 16.07.2019 17:00:00 - 22.07.2019 17:00:00 (BST)South Uist Range, Grande-Bretagne (3023): reduced air pressure: 16.07.2019 17:00:00 - 22.07.2019 17:00:00 (BST)South Uist Range, Grande-Bretagne (3023): visibility: 16.07.2019 17:00:00 - 22.07.2019 17:00:00 (BST)South Uist Range, Grande-Bretagne (3023): Quantités de précipitations: 16.07.2019 17:00:00 - 22.07.2019 17:00:00 (BST)
Date & Time tt [°C] td [°C] tt -20cm [°C] tt -100cm [°C] ff [km/h] ff [knt] fx [km/h] fx [knt] dd ppp [hPa] vv [km] rr [mm]
22.07.2019 17:00:00 15,6 15,3 - - 39 21 50 27 SSW 1007,2 3,4 -
22.07.2019 16:00:00 15,6 15,4 - - 35 19 - - SSW 1006,7 6 0,0
22.07.2019 15:00:00 15,9 15,7 - - 34 18 48 26 SW 1006,2 1,9 0,0
22.07.2019 14:00:00 15,7 15,5 - - 34 18 - - SW 1005,7 1,6 0,2
22.07.2019 13:00:00 15,7 15,5 - - 24 13 - - SW 1005,0 1,7 0,0
22.07.2019 12:00:00 15,8 15,4 - - 21 11 - - SSW 1004,8 2,6 0,0
22.07.2019 11:00:00 15,5 15,1 - - 16 9 - - SSW 1004,2 35 0,2
22.07.2019 10:00:00 14,1 13,7 16,0 14,2 13 7 - - SSW 1003,9 7 1,2
22.07.2019 09:00:00 14,0 13,5 - - 15 8 - - S 1003,6 6 0,4
22.07.2019 08:00:00 14,0 13,5 - - 18 10 - - S 1003,2 15 0,8
22.07.2019 07:00:00 14,4 13,9 - - 26 14 - - SSW 1003,4 3,4 0,2
22.07.2019 06:00:00 14,5 14,0 - - 28 15 - - SSW 1003,0 9 0,0
22.07.2019 05:00:00 14,6 14,0 - - 28 15 - - SSW 1002,9 9 0,0
22.07.2019 04:00:00 14,6 13,9 - - 24 13 - - SSW 1002,9 9 0,0
22.07.2019 03:00:00 14,7 14,0 - - 28 15 - - SSW 1002,8 10 0,0
22.07.2019 02:00:00 14,8 14,0 - - 28 15 - - SSW 1002,7 9 0,0
22.07.2019 01:00:00 14,9 14,0 - - 34 18 48 26 SSW 1002,7 10 0,0
22.07.2019 00:00:00 15,0 14,3 - - 35 19 52 28 SSW 1002,7 11 0,0
21.07.2019 23:00:00 15,4 14,6 - - 39 21 57 31 SSW 1002,7 11 0,0
21.07.2019 22:00:00 15,5 14,6 - - 42 23 57 31 SSW 1002,6 10 0,0
21.07.2019 21:00:00 15,6 14,6 - - 41 22 61 33 SSW 1002,3 10 0,0
21.07.2019 20:00:00 16,0 15,1 - - 48 26 61 33 SSW 1002,1 13 0,0
21.07.2019 19:00:00 15,9 15,1 - - 50 27 74 40 S 1002,2 26 0,8
21.07.2019 18:00:00 15,4 14,5 - - 48 26 72 39 S 1002,6 3,6 0,4
21.07.2019 17:00:00 14,9 13,8 - - 50 27 70 38 SSE 1003,7 14 1,0
21.07.2019 16:00:00 14,8 13,5 - - 44 24 61 33 SSE 1005,4 8 1,0
21.07.2019 15:00:00 14,7 13,5 - - 41 22 55 30 S 1006,8 9 1,2
21.07.2019 14:00:00 15,2 13,7 - - 35 19 54 29 S 1007,8 14 0,4
21.07.2019 13:00:00 16,3 13,4 - - 39 21 52 28 S 1008,3 70 0,0
21.07.2019 12:00:00 16,2 13,4 - - 31 17 - - S 1008,7 55 0,0
21.07.2019 11:00:00 16,4 14,3 - - 34 18 46 25 S 1009,1 45 0,0
21.07.2019 10:00:00 16,0 14,3 16,2 14,2 31 17 - - SSW 1009,1 30 0,0
21.07.2019 09:00:00 15,2 13,9 - - 31 17 - - SSW 1008,9 28 0,0
21.07.2019 08:00:00 14,9 13,7 - - 28 15 - - SSW 1008,6 30 0,0
21.07.2019 07:00:00 14,5 13,3 - - 28 15 - - SSW 1008,6 35 0,0
21.07.2019 06:00:00 14,3 13,2 - - 28 15 - - SSW 1008,5 35 0,0
21.07.2019 05:00:00 14,3 13,1 - - 26 14 - - SSW 1008,3 35 0,0
21.07.2019 04:00:00 14,3 12,7 - - 26 14 - - SSW 1008,3 40 0,0
21.07.2019 03:00:00 13,9 12,6 - - 28 15 - - SW 1008,3 45 0,0
21.07.2019 02:00:00 13,3 12,0 - - 24 13 - - SW 1008,0 50 0,0
21.07.2019 01:00:00 14,3 12,9 - - 26 14 - - SW 1008,0 55 0,0
21.07.2019 00:00:00 14,0 12,5 - - 22 12 - - SW 1007,9 70 0,2
20.07.2019 23:00:00 12,9 11,5 - - 34 18 - - WSW 1007,7 1,8 0,2
20.07.2019 22:00:00 14,7 12,8 - - 24 13 - - SW 1007,3 45 0,0
20.07.2019 21:00:00 15,0 13,0 - - 24 13 - - SW 1006,8 40 0,0
20.07.2019 20:00:00 15,3 13,3 - - 24 13 - - SW 1006,4 40 0,0
20.07.2019 19:00:00 15,6 13,2 - - 24 13 - - SSW 1006,1 55 0,0
20.07.2019 18:00:00 16,5 13,2 - - 22 12 - - SW 1005,9 75 0,0
20.07.2019 17:00:00 16,5 13,2 - - 22 12 - - SW 1005,8 75 0,0
20.07.2019 16:00:00 16,5 13,3 - - 21 11 - - WSW 1005,3 70 0,0
20.07.2019 15:00:00 16,5 13,3 - - 21 11 - - WSW 1004,8 75 0,0
20.07.2019 14:00:00 16,1 12,7 - - 21 11 - - WSW 1004,3 75 0,0
20.07.2019 13:00:00 15,6 12,2 - - 22 12 - - W 1003,8 75 0,0
20.07.2019 12:00:00 15,8 12,7 - - 18 10 - - W 1003,3 75 0,0
20.07.2019 11:00:00 15,3 12,3 - - 21 11 - - W 1002,8 75 0,0
20.07.2019 10:00:00 15,2 12,5 16,2 14,0 21 11 - - WNW 1002,2 75 0,0
20.07.2019 09:00:00 14,7 12,2 - - 18 10 - - WNW 1001,8 75 0,0
20.07.2019 08:00:00 14,2 12,1 - - 15 8 - - WNW 1001,4 75 0,0
20.07.2019 07:00:00 13,5 12,0 - - 13 7 - - NW 1001,1 75 0,0
20.07.2019 06:00:00 12,5 11,2 - - 16 9 - - NW 1001,0 75 0,0
20.07.2019 05:00:00 12,1 11,0 - - 13 7 - - NW 1000,8 75 0,0
20.07.2019 04:00:00 11,9 10,4 - - 9 5 - - NNW 1000,7 60 0,0
20.07.2019 03:00:00 12,6 11,3 - - 13 7 - - N 1000,9 55 0,0
20.07.2019 02:00:00 12,4 11,2 - - 9 5 - - N 1001,1 40 0,0
20.07.2019 01:00:00 13,3 11,6 - - 11 6 - - NNW 1001,3 55 0,0
20.07.2019 00:00:00 12,8 11,0 - - 11 6 - - NNW 1001,5 45 0,0
19.07.2019 23:00:00 13,6 10,9 - - 8 4 - - NNW 1001,7 70 0,0
19.07.2019 22:00:00 14,1 11,4 - - 5 3 - - NNW 1001,8 60 0,0
19.07.2019 21:00:00 14,1 11,4 - - 4 2 - - NNW 1001,7 60 0,0
19.07.2019 20:00:00 15,0 11,4 - - 11 6 - - WNW 1001,8 55 0,0
19.07.2019 19:00:00 15,7 12,4 - - 13 7 - - W 1001,9 45 0,0
19.07.2019 18:00:00 15,3 12,8 - - 13 7 - - W 1002,3 40 0,0
19.07.2019 17:00:00 15,6 12,3 - - 16 9 - - SW 1002,6 55 0,0
19.07.2019 16:00:00 16,3 12,8 - - 16 9 - - SW 1002,9 50 0,0
19.07.2019 15:00:00 15,8 13,0 - - 21 11 - - SSW 1003,2 40 0,0
19.07.2019 14:00:00 16,3 13,2 - - 21 11 - - SW 1003,4 35 0,0
19.07.2019 13:00:00 16,2 13,1 - - 22 12 - - SW 1003,3 40 0,0
19.07.2019 12:00:00 15,6 13,0 - - 22 12 - - SW 1003,1 35 0,0
19.07.2019 11:00:00 15,7 13,4 - - 29 16 - - SSW 1003,1 30 0,0
19.07.2019 10:00:00 15,3 13,2 16,0 14,0 28 15 - - SSW 1003,1 30 0,0
19.07.2019 09:00:00 15,0 12,4 - - 28 15 - - SSW 1003,0 40 0,0
19.07.2019 08:00:00 14,1 11,9 - - 26 14 - - SW 1003,0 30 0,0
19.07.2019 07:00:00 13,6 11,9 - - 26 14 - - SW 1002,8 28 0,0
19.07.2019 06:00:00 13,2 11,7 - - 24 13 - - SW 1002,7 28 0,0
19.07.2019 05:00:00 13,0 11,6 - - 26 14 - - SW 1002,7 30 0,0
19.07.2019 04:00:00 13,3 11,9 - - 28 15 - - WSW 1002,7 28 0,0
19.07.2019 03:00:00 13,2 11,9 - - 26 14 - - SW 1002,8 26 0,0
19.07.2019 02:00:00 13,4 12,2 - - 26 14 - - SW 1002,8 23 0,0
19.07.2019 01:00:00 13,6 12,4 - - 26 14 - - SW 1002,8 23 0,0
19.07.2019 00:00:00 13,9 12,6 - - 28 15 - - SW 1002,8 22 0,0
18.07.2019 23:00:00 13,7 12,5 - - 24 13 - - SW 1002,8 22 0,0
18.07.2019 22:00:00 13,7 12,3 - - 24 13 - - SW 1002,7 23 0,0
18.07.2019 21:00:00 14,1 12,5 - - 28 15 - - SW 1002,6 21 0,0
18.07.2019 20:00:00 14,7 12,6 - - 26 14 - - SW 1002,5 18 0,0
18.07.2019 19:00:00 15,2 12,9 - - 28 15 - - SW 1002,3 23 0,0
18.07.2019 18:00:00 15,7 13,3 - - 31 17 - - WSW 1002,1 29 0,0
18.07.2019 17:00:00 15,8 13,5 - - 29 16 - - WSW 1001,9 40 0,0
18.07.2019 16:00:00 15,6 13,4 - - 29 16 - - W 1001,5 35 0,0
18.07.2019 15:00:00 14,8 13,0 - - 28 15 - - WSW 1001,1 12 0,0
18.07.2019 14:00:00 15,9 14,4 - - 31 17 - - WSW 1000,9 18 0,2
18.07.2019 13:00:00 14,5 13,4 - - 31 17 - - SW 1000,7 15 0,6
18.07.2019 12:00:00 15,0 13,4 - - 28 15 - - SW 1000,4 20 0,0
18.07.2019 11:00:00 14,6 13,5 - - 26 14 - - SW 1000,3 16 0,4
18.07.2019 10:00:00 15,1 13,1 16,0 14,0 31 17 - - SW 1000,3 22 0,0
18.07.2019 09:00:00 14,8 13,3 - - 28 15 - - SW 1000,5 17 0,8
18.07.2019 08:00:00 13,8 12,2 - - 28 15 - - SW 1000,3 20 0,0
18.07.2019 07:00:00 13,7 12,2 - - 29 16 - - SW 1000,3 17 0,0
18.07.2019 06:00:00 13,7 12,6 - - 29 16 - - WSW 1000,3 15 0,2
18.07.2019 05:00:00 13,4 12,4 - - 29 16 - - SW 1000,2 23 0,0
18.07.2019 04:00:00 13,6 12,7 - - 34 18 - - SW 1000,6 18 0,2
18.07.2019 03:00:00 13,2 12,3 - - 29 16 - - SW 1001,2 16 0,0
18.07.2019 02:00:00 13,7 12,8 - - 29 16 - - SW 1001,6 4,1 0,2
18.07.2019 01:00:00 13,9 12,8 - - 29 16 - - SSW 1002,0 23 0,0
18.07.2019 00:00:00 13,9 12,8 - - 21 11 - - SSW 1002,2 20 0,0
17.07.2019 23:00:00 13,7 12,7 - - 24 13 - - SW 1002,6 24 0,0
17.07.2019 22:00:00 13,9 12,9 - - 22 12 - - SW 1002,7 23 0,0
17.07.2019 21:00:00 14,2 12,9 - - 22 12 - - SW 1002,8 24 0,0
17.07.2019 20:00:00 14,3 13,1 - - 26 14 - - SW 1002,9 23 0,0
17.07.2019 19:00:00 14,1 13,0 - - 18 10 - - SW 1002,8 15 0,2
17.07.2019 18:00:00 15,2 12,5 - - 24 13 - - WSW 1002,6 30 0,0
17.07.2019 17:00:00 15,8 13,4 - - 26 14 - - WSW 1002,7 26 0,0
17.07.2019 16:00:00 16,0 14,6 - - 26 14 - - WSW 1002,8 30 0,0
17.07.2019 15:00:00 14,9 14,2 - - 22 12 48 26 WSW 1002,5 35 0,2
17.07.2019 14:00:00 14,8 14,5 - - 39 21 55 30 SSW 1002,0 1,7 0,6
17.07.2019 13:00:00 14,6 14,1 - - 42 23 59 32 S 1002,1 4,4 1,0
17.07.2019 12:00:00 14,2 13,7 - - 41 22 61 33 S 1002,5 10 1,6
17.07.2019 11:00:00 14,2 13,7 - - 42 23 59 32 S 1002,9 9 3,2
17.07.2019 10:00:00 14,1 13,6 16,2 13,7 41 22 61 33 S 1003,3 5 3,6
17.07.2019 09:00:00 14,2 13,6 - - 46 25 59 32 S 1003,8 5 1,2
17.07.2019 08:00:00 14,3 13,6 - - 39 21 54 29 S 1004,5 5 1,8
17.07.2019 07:00:00 14,1 13,4 - - 37 20 57 31 S 1005,4 9 1,8
17.07.2019 06:00:00 14,2 13,1 - - 35 19 50 27 S 1006,1 27 0,6
17.07.2019 05:00:00 14,4 13,6 - - 31 17 48 26 S 1007,1 18 0,6
17.07.2019 04:00:00 14,4 13,4 - - 31 17 - - S 1008,2 7 0,2
17.07.2019 03:00:00 14,3 13,5 - - 26 14 - - S 1009,2 35 0,0
17.07.2019 02:00:00 14,2 13,3 - - 24 13 - - S 1010,2 45 0,2
17.07.2019 01:00:00 14,6 13,8 - - 26 14 - - S 1010,9 30 0,2
17.07.2019 00:00:00 14,6 13,8 - - 26 14 - - S 1011,4 11 0,6
16.07.2019 23:00:00 15,0 13,7 - - 24 13 - - S 1011,9 18 0,0
16.07.2019 22:00:00 15,1 13,8 - - 21 11 - - S 1012,4 23 0,0
16.07.2019 21:00:00 15,6 13,9 - - 24 13 - - S 1012,8 25 0,0
16.07.2019 20:00:00 15,8 13,9 - - 28 15 - - S 1013,3 22 0,0
16.07.2019 19:00:00 16,2 14,3 - - 28 15 - - SSW 1013,5 21 0,0
16.07.2019 18:00:00 16,2 14,2 - - 31 17 - - SSW 1013,9 20 0,0
16.07.2019 17:00:00 16,6 14,2 - - 31 17 - - SSW 1014,1 25 0,0

tt = Température de l'air
td = dewpoint
tt -20cm = Température de l'air -20cm
tt -100cm = Température de l'air -100cm
ff = Vitesse du vent
fx = gusts
dd = Direction du vent
ppp = reduced air pressure
vv = visibility
rr = Quantités de précipitations

stations d'obs. à proximité